Location: Boston
(42.3580°N, 71.0600°W)
Time: 12:06:16
(UTC-05:00)

ISS - Visible Passes

Search period start: 14 December 2017 00:00
Search period end: 24 December 2017 00:00
Orbit: 403 x 406 km, 51.6° (Epoch: 15 December)

Date Brightness Start Highest point End Pass type
(mag) Time Alt. Az. Time Alt. Az. Time Alt. Az.
14 Dec -3.9 17:24:51 10° NW 17:28:09 79° NNE 17:30:36 17° ESE visible
14 Dec -0.4 19:02:42 10° WSW 19:03:20 12° WSW 19:03:20 12° WSW visible
15 Dec -1.5 18:09:30 10° W 18:12:11 23° SW 18:14:27 12° S visible
16 Dec -2.6 17:16:56 10° WNW 17:20:05 43° SW 17:23:12 10° SSE visible
18 Dec -0.7 17:09:25 10° W 17:11:48 19° SW 17:14:11 10° S visible
